OBJECT D (52800 NORAD) Tracking and Keplerian Element Data
This shows tracking and keplerian element data for the satellite.
Feedback or suggestion? Click here.
Element | Value |
Catalog | 52800 |
Name | OBJECT D |
Epoch Orbit | 22 |
Epoch Day | 157.51593201 |
Epoch Year | 2022 |
RAAN | 283.9776 |
Inclination | 41.3667 |
Eccentricity | 0.0221 |
Argument of Perigee | 123.2175 |
Mean Anonmoly | 334.236 |
Mean Motion | 15.7618271 |
Decay Rate | -2.283E-05 |
L1 | 1 52800U 22060D 22157.51593201 -.00002283 72280-5 00000+0 0 9997 |
L2 | 2 52800 41.3667 283.9776 0221000 123.2175 334.2360 15.76182710 225 |
Live tracking and technical data element details for OBJECT D (NORAD 52800). OBJECT D can be tracked NOW for your location showing map with azimuth and elevation plus other details from your city location.
Track the satellite on the map from your city or location and see movement details for azimuth, elevation, latitude, longitude, range, height, and movement on the map or in text.
IsCatalogInMostPopularTable: catalog: 52800, numindb: 3
Update: records affected: 1
GetName: 52800 OBJECT D
Hit Count: updated at: Sun, 14 Aug 2022 00:32:15 GMT